Overview Statistics Trail Chart Weather Telemetry Raw packets
 

This is the latest recevied weather packets stored in our database for station/object W6MAF. If no packets are shown the sender has not sent any weather packets the latest 10 day(s).

<< 97 98 99 100 101 102 103 >>
Time Temp. Humidity Pressure Rain* Wind** Luminosity Snow
1787959534 33.89° C 5% - 0 mm 6.26 m/s, 218° - -
1787959233 33.89° C 5% - 0 mm 8.05 m/s, 186° - -
1787958935 33.89° C 5% - 0 mm 7.6 m/s, 201° - -
1787958637 33.89° C 5% - 0 mm 7.15 m/s, 179° - -
1787958341 33.89° C 5% - 0 mm 8.05 m/s, 181° - -
1787958042 33.89° C 6% - 0 mm 5.36 m/s, 186° - -
1787957744 33.33° C 5% - 0 mm 6.26 m/s, 191° - -
1787957145 33.89° C 6% - 0 mm 6.26 m/s, 174° - -
1787956847 33.89° C 5% - 0 mm 8.49 m/s, 200° - -
1787956550 33.89° C 5% - 0 mm 8.49 m/s, 207° - -
1787956252 33.89° C 5% - 0 mm 7.6 m/s, 174° - -
1787955956 34.44° C 5% - 0 mm 8.49 m/s, 167° - -
1787955653 34.44° C 5% - 0 mm 8.05 m/s, 173° - -
1787955355 34.44° C 5% - 0 mm 5.81 m/s, 207° - -
1787955058 34.44° C 5% - 0 mm 6.26 m/s, 197° - -
1787954760 34.44° C 5% - 0 mm 7.6 m/s, 210° - -
1787954462 33.89° C 5% - 0 mm 4.02 m/s, 229° - -
1787954164 33.89° C 5% - 0 mm 8.05 m/s, 194° - -
1787953863 33.89° C 6% - 0 mm 7.6 m/s, 184° - -
1787953565 33.89° C 5% - 0 mm 6.26 m/s, 193° - -
1787953268 34.44° C 5% - 0 mm 8.94 m/s, 203° - -
1787952970 33.89° C 6% - 0 mm 6.71 m/s, 174° - -
1787952374 33.89° C 6% - 0 mm 9.39 m/s, 187° - -
1787952073 33.89° C 6% - 0 mm 7.6 m/s, 197° - -
1787951775 33.89° C 6% - 0 mm 9.39 m/s, 181° - -

* Rain latest hour (hover to see other rain measurements)
** Current wind speed in m/s (hover to see current wind gust speed)